Hourly Data Report for November 20, 2017

All times are specified in Local Standard Time (LST). Add 1 hour to adjust for Daylight Saving Time where and when it is observed.

BATHURST A
NEW BRUNSWICK

47°37'47.000" N
65°44'20.000" W
58.80 m
8100505
71574
ZBF

Download Data

Hourly Data (November 2017)
Hourly Data Report for November 20, 2017
Temp Definition
°C
Dew Point Temp Definition
°C
Rel Hum Definition
%
Wind Dir Definition
10's deg

Wind Spd Definition
km/h
Visibility Definition
km
Stn Press Definition
kPa
Hmdx Definition


Wind Chill Definition


Weather Definition


TIME
00:00 Legend Double Dagger 2.5 -1.2 77 25 26 24.1 97.82     LegendNANA
01:00 Legend Double Dagger 1.7 -2.8 72 27 39 24.1 98.00     LegendNANA
02:00 Legend Double Dagger 0.9 -2.5 78 27 14 24.1 98.14     Clear
03:00 Legend Double Dagger 0.2 -5.1 67 27 30 24.1 98.28     LegendNANA
04:00 Legend Double Dagger 0.0 -5.4 67 28 23 24.1 98.40   -6 LegendNANA
05:00 Legend Double Dagger -0.6 -6.6 64 29 31 24.1 98.49   -7 Mainly Clear
06:00 Legend Double Dagger -1.4 -6.9 66 27 23 24.1 98.59   -7 LegendNANA
07:00 Legend Double Dagger -1.9 -7.8 64 27 26 24.1 98.68   -8 LegendNANA
08:00 Legend Double Dagger -2.0 -7.5 66 29 16 24.1 98.78   -7 Mostly Cloudy
09:00 Legend Double Dagger -2.6 -9.1 61 29 28 24.1 98.91   -10 LegendNANA
10:00 Legend Double Dagger -3.3 -9.6 62 28 26 24.1 98.98   -10 Snow Showers
11:00 Legend Double Dagger -3.4 -10.0 61 28 28 24.1 99.02   -11 Mostly Cloudy
12:00 Legend Double Dagger -2.9 -10.6 56 27 34 24.1 99.00   -11 LegendNANA
13:00 Legend Double Dagger -2.6 -10.1 57 28 24 24.1 99.02   -9 LegendNANA
14:00 Legend Double Dagger -2.3 -9.7 57 28 26 24.1 99.06   -9 Cloudy
15:00 Legend Double Dagger -2.3 -9.4 59 27 35 24.1 99.12   -10 LegendNANA
16:00 Legend Double Dagger -3.0 -9.9 59 28 21 24.1 99.19   -9 LegendNANA
17:00 Legend Double Dagger -3.5 -9.0 66 27 25 24.1 99.28   -10 Cloudy
18:00 Legend Double Dagger -4.0 -9.9 63 28 24 24.1 99.41   -11 Snow Showers
19:00 Legend Double Dagger -5.2 -11.6 61 29 32 24.1 99.54   -13 Snow Showers
20:00 Legend Double Dagger -5.8 -12.0 62 28 20 24.1 99.61   -13 Snow Showers
21:00 Legend Double Dagger -6.0 -12.4 60 29 19 24.1 99.73   -13 LegendNANA
22:00 Legend Double Dagger -6.8 -13.0 61 27 30 24.1 99.81   -15 LegendNANA
23:00 Legend Double Dagger -7.3 -12.9 64 27 22 24.1 99.89   -15 Clear

Notes on Data Quality.

Legend

  • E = Estimated
  • M = Missing
  • NA = Not Available
  • ‡ = Partner data that is not subject to review by the National Climate Archives
Date modified: